Tracking 29892 objects as of 21-Nov-2024
HD Live streaming from Space Station
objects crossing your sky now

STARLINK-3971

Track STARLINK-3971 now!
10-day predictions
STARLINK-3971 is classified as:


NORAD ID: 52642
Int'l Code: 2022-052AW
Perigee: 545.8 km
Apogee: 547.9 km
Inclination: 53.2 °
Period: 95.4 minutes
Semi major axis: 6917 km
RCS: Unknown
Launch date: May 14, 2022
Source: United States (US)
Launch site: AIR FORCE EASTERN TEST RANGE (AFETR)
Your satellite tracking list
Your tracking list is empty




NASA's NSSDC Master Catalog

Two Line Element Set (TLE):
1 52642U 22052AW  24325.12849712  .00002670  00000-0  18578-3 0  9997
2 52642  53.2154 229.5051 0001494  87.4070 272.7093 15.08843266139487
Source of the keplerian elements: AFSPC